This demonstration page uses our WeatherBlox Daily Observations layout. Learn more.

Hourly Observations for May 16, 2016

Temp ( °F °C ) Dew Point ( °F °C ) Humidity (%) Winds ( mph kmh ) Pressure ( in mb ) Visibility ( mi km ) Precip ( " mm )
12:15 am 00:15 Clear 45 7 36 2 71 71 Calm 30.15 1021 10 16.0934 0 0
12:35 am 00:35 Partly Cloudy 43 6 36 2 76 76 Calm 30.15 1021 10 16.0934 0 0
12:55 am 00:55 Partly Cloudy 43 6 36 2 76 76 Calm 30.15 1021 10 16.0934 0 0
1:15 am 01:15 Partly Cloudy 41 5 36 2 81 81 SW 5 7 30.15 1021 10 16.0934 0 0
1:35 am 01:35 Cloudy 41 5 37 3 87 87 Calm 30.15 1021 10 16.0934 0 0
1:55 am 01:55 Cloudy 41 5 37 3 87 87 SW 5 7 30.15 1021 10 16.0934 0 0
2:15 am 02:15 Cloudy 43 6 37 3 81 81 Calm 30.15 1021 10 16.0934 0 0
2:35 am 02:35 Cloudy 43 6 36 2 76 76 Calm 30.15 1021 10 16.0934 0 0
2:55 am 02:55 Cloudy 43 6 37 3 81 81 SSW 5 7 30.15 1021 10 16.0934 0 0
3:15 am 03:15 Cloudy 43 6 36 2 76 76 Calm 30.15 1021 10 16.0934 0 0
3:35 am 03:35 Cloudy 43 6 37 3 81 81 SW 5 7 30.15 1021 10 16.0934 0 0
3:55 am 03:55 Cloudy 43 6 37 3 81 81 Calm 30.15 1021 10 16.0934 0 0
4:15 am 04:15 Cloudy 43 6 37 3 81 81 Calm 30.18 1022 10 16.0934 0 0
4:35 am 04:35 Cloudy 43 6 37 3 81 81 Calm 30.18 1022 10 16.0934 0 0
4:55 am 04:55 Cloudy 43 6 37 3 81 81 SSW 6 9 30.18 1022 10 16.0934 0 0
5:15 am 05:15 Cloudy 43 6 37 3 81 81 SSW 6 9 30.18 1022 10 16.0934 0 0
5:35 am 05:35 Cloudy 43 6 37 3 81 81 S 8 13 30.18 1022 10 16.0934 0 0
5:55 am 05:55 Cloudy 43 6 37 3 81 81 S 7 11 30.21 1023 10 16.0934 0 0
6:15 am 06:15 Cloudy 45 7 37 3 76 76 S 6 9 30.21 1023 10 16.0934 0 0
6:30 am 06:30 Cloudy 45 7 37 3 76 76 WSW 5 7 30.24 1024 10 16.0934 0 0
6:55 am 06:55 Mostly Cloudy 45 7 37 3 76 76 NNW 5 7 30.24 1024 10 16.0934 0 0
7:15 am 07:15 Mostly Cloudy 46 8 39 4 76 76 NW 6 9 30.27 1025 10 16.0934 0 0
7:30 am 07:30 Mostly Cloudy 48 9 37 3 66 66 NW 5 7 30.27 1025 10 16.0934 0 0
7:55 am 07:55 Partly Cloudy 50 10 34 1 54 54 NW 10 17 30.3 1026 10 16.0934 0 0
8:15 am 08:15 Sunny 50 10 34 1 54 54 NW 6 9 30.3 1026 10 16.0934 0 0
8:35 am 08:35 Sunny 52 11 32 0 47 47 NNW 12 19 30.3 1026 10 16.0934 0 0
8:55 am 08:55 Sunny 52 11 34 1 50 50 WNW 10 17 30.3 1026 10 16.0934 0 0
9:15 am 09:15 Sunny 52 11 32 0 47 47 W 8 13 30.3 1026 10 16.0934 0 0
9:35 am 09:35 Sunny 54 12 32 0 44 44 WNW 12 19 30.3 1026 10 16.0934 0 0
9:55 am 09:55 Sunny 54 12 32 0 44 44 WNW 13 20 30.3 1026 10 16.0934 0 0
10:15 am 10:15 Sunny 54 12 32 0 44 44 NNW 8 13 30.3 1026 10 16.0934 0 0
10:35 am 10:35 Sunny 55 13 32 0 41 41 N 6 9 30.27 1025 10 16.0934 0 0
10:55 am 10:55 Sunny 55 13 32 0 41 41 W 6 9 30.27 1025 10 16.0934 0 0
11:15 am 11:15 Sunny 55 13 32 0 41 41 W 6 9 30.27 1025 10 16.0934 0 0
11:35 am 11:35 Sunny 59 15 34 1 39 39 W 15 24 30.27 1025 10 16.0934 0 0
11:55 am 11:55 Sunny 59 15 34 1 39 39 W 7 11 30.27 1025 10 16.0934 0 0
12:15 pm 12:15 Sunny 59 15 36 2 42 42 NW 13 20 30.27 1025 10 16.0934 0 0
12:35 pm 12:35 Sunny 61 16 36 2 39 39 W 16 26 30.24 1024 10 16.0934 0 0
12:55 pm 12:55 Sunny 61 16 36 2 39 39 W 10 17 30.24 1024 10 16.0934 0 0
1:15 pm 13:15 Sunny 61 16 36 2 39 39 W 10 17 30.24 1024 10 16.0934 0 0
1:35 pm 13:35 Sunny 63 17 36 2 37 37 W 8 13 30.24 1024 10 16.0934 0 0
1:55 pm 13:55 Sunny 63 17 36 2 37 37 W 10 17 30.21 1023 10 16.0934 0 0
2:15 pm 14:15 Sunny 63 17 36 2 37 37 WNW 10 17 30.21 1023 10 16.0934 0 0
2:35 pm 14:35 Sunny 64 18 37 3 37 37 W 8 13 30.21 1023 10 16.0934 0 0
2:55 pm 14:55 Sunny 64 18 36 2 34 34 WNW 10 17 30.21 1023 10 16.0934 0 0
3:15 pm 15:15 Sunny 64 18 36 2 34 34 NW 8 13 30.18 1022 10 16.0934 0 0
3:35 pm 15:35 Sunny 64 18 36 2 34 34 SW 8 13 30.18 1022 10 16.0934 0 0
3:55 pm 15:55 Sunny 68 20 37 3 33 33 WSW 7 11 30.18 1022 10 16.0934 0 0
4:15 pm 16:15 Sunny 68 20 37 3 33 33 W 8 13 30.18 1022 10 16.0934 0 0
4:35 pm 16:35 Sunny 68 20 37 3 33 33 SW 12 19 30.18 1022 10 16.0934 0 0
4:55 pm 16:55 Sunny 68 20 37 3 33 33 SW 9 15 30.18 1022 10 16.0934 0 0
5:15 pm 17:15 Sunny 68 20 37 3 33 33 SW 9 15 30.18 1022 10 16.0934 0 0
5:35 pm 17:35 Sunny 68 20 36 2 30 30 WSW 6 9 30.18 1022 10 16.0934 0 0
5:55 pm 17:55 Sunny 68 20 37 3 33 33 Calm 30.18 1022 10 16.0934 0 0
6:15 pm 18:15 Sunny 68 20 37 3 33 33 SSW 8 13 30.18 1022 10 16.0934 0 0
6:35 pm 18:35 Sunny 68 20 37 3 33 33 SSW 10 17 30.18 1022 10 16.0934 0 0
6:55 pm 18:55 Sunny 68 20 37 3 33 33 SSW 7 11 30.18 1022 10 16.0934 0 0
7:15 pm 19:15 Sunny 64 18 37 3 37 37 SSW 6 9 30.18 1022 10 16.0934 0 0
7:35 pm 19:35 Sunny 64 18 37 3 37 37 S 7 11 30.18 1022 10 16.0934 0 0
7:55 pm 19:55 Sunny 64 18 39 4 40 40 SSW 8 13 30.18 1022 10 16.0934 0 0
8:15 pm 20:15 Sunny 63 17 37 3 39 39 S 6 9 30.18 1022 10 16.0934 0 0
8:35 pm 20:35 Clear 63 17 39 4 42 42 S 5 7 30.18 1022 10 16.0934 0 0
8:55 pm 20:55 Clear 61 16 39 4 45 45 S 6 9 30.21 1023 10 16.0934 0 0
9:15 pm 21:15 Clear 61 16 41 5 48 48 SSW 7 11 30.21 1023 10 16.0934 0 0
9:35 pm 21:35 Clear 59 15 41 5 51 51 Calm 30.21 1023 10 16.0934 0 0
9:55 pm 21:55 Clear 59 15 43 6 55 55 SSW 3 6 30.21 1023 10 16.0934 0 0
10:15 pm 22:15 Clear 59 15 43 6 55 55 S 5 7 30.21 1023 10 16.0934 0 0
10:35 pm 22:35 Clear 55 13 46 8 72 72 SW 5 7 30.24 1024 10 16.0934 0 0
10:55 pm 22:55 Clear 57 14 43 6 59 59 S 7 11 30.24 1024 10 16.0934 0 0
11:15 pm 23:15 Clear 55 13 46 8 72 72 SSW 5 7 30.21 1023 10 16.0934 0 0
11:35 pm 23:35 Clear 55 13 45 7 67 67 SSW 6 9 30.21 1023 10 16.0934 0 0
11:55 pm 23:55 Clear 55 13 45 7 67 67 SSW 6 9 30.21 1023 10 16.0934 0 0

Powered by AerisWeather